sat.trackr.live / text

‹ back to catalog

STARLINK-34852

NORAD 66135 · 2025-237X

PAYLOAD ACTIVE UNKNOWN

§ Identity

Operator
Country
US
Launch date
2025-10-22
Launch site
AFWTR
Launch vehicle
Mass (kg)
RCS (m²)

Purposes: comms

External: N2YO · Heavens-Above · Gunter

§ Orbital elements

Epoch: 2026-05-25T03:22:26.587200Z

Period
94.10 min
Inclination
53.1582°
Eccentricity
0.0001125
Mean motion
15.30207115 rev/d
Perigee alt
474.4 km
Apogee alt
476.0 km
Semi-major
6,853.3 km
B*
7.6150e-4
RAAN
44.6453°
Arg perigee
85.9818°
Mean anomaly
274.1311°
Rev number
3,427

§ Raw data

STARLINK-348521 66135U 25237X   26145.14058550  .00022267  00000+0  76150-3 0  99962 66135  53.1582  44.6453 0001125  85.9818 274.1311 15.30207115 34271

JSON: /api/v1/satellites/66135 · /tle

For live sub-satellite position, see the globe view (requires WebGL).

§ Visibility from observer

Set your observer location to see the next 7 days of passes ≥ 10°. The values pass through the URL so the page stays shareable.

No JS? Fill the form by hand. The geolocation button needs JavaScript.